This is the latest recevied weather packets stored in our database for station/object K8CWG. If no packets are shown the sender has not sent any weather packets the latest 10 day(s).
| Time | Temp. | Humidity | Pressure | Rain* | Wind** | Luminosity | Snow |
|---|---|---|---|---|---|---|---|
| 1777689002 | 6.11° C | 84% | 1016.5 hPa | 0 mm | - | - | - |
| 1777688102 | 6.11° C | 85% | 1016.1 hPa | 0 mm | - | - | - |
| 1777687202 | 5.56° C | 84% | 1016.1 hPa | 0 mm | - | - | - |
| 1777685401 | 6.67° C | 80% | 1015.6 hPa | 0 mm | - | - | - |
| 1777684502 | 6.67° C | 78% | 1015.5 hPa | 0 mm | - | - | - |
| 1777683602 | 7.78° C | 74% | 1015.3 hPa | 0 mm | - | - | - |
| 1777681805 | 8.89° C | 69% | 1014.3 hPa | 0 mm | - | - | - |
| 1777680902 | 9.44° C | 67% | 1014 hPa | 0 mm | - | - | - |
| 1777680003 | 10.56° C | 63% | 1014.2 hPa | 0 mm | - | - | - |
| 1777678202 | 11.11° C | 64% | 1014.4 hPa | 0 mm | - | - | - |
| 1777677302 | 10.56° C | 63% | 1014 hPa | 0 mm | - | - | - |
| 1777676402 | 11.11° C | 62% | 1014.1 hPa | 0 mm | - | - | - |
| 1777673702 | 12.22° C | 55% | 1014.2 hPa | 0 mm | - | - | - |
| 1777672806 | 11.67° C | 57% | 1014.1 hPa | 0 mm | - | - | - |
| 1777670101 | 12.78° C | 57% | 1013.9 hPa | 0 mm | - | - | - |
| 1777669203 | 13.33° C | 60% | 1013.7 hPa | 0 mm | - | - | - |
| 1777668302 | 12.78° C | 56% | 1013.8 hPa | 0 mm | - | - | - |
| 1777667401 | 12.22° C | 60% | 1013.8 hPa | 0 mm | - | - | - |
| 1777666502 | 12.78° C | 60% | 1013.5 hPa | 0 mm | - | - | - |
| 1777665607 | 12.78° C | 64% | 1013.5 hPa | 0 mm | - | - | - |
| 1777662004 | 13.33° C | 59% | 1013.3 hPa | 0 mm | - | - | - |
| 1777658403 | 13.33° C | 61% | 1012.8 hPa | 0 mm | - | - | - |
| 1777654804 | 10.56° C | 77% | 1012.6 hPa | 0 mm | - | - | - |
| 1777653904 | 10.56° C | 78% | 1012.3 hPa | 0 mm | - | - | - |
| 1777653002 | 10.56° C | 79% | 1012.4 hPa | 0 mm | - | - | - |
* Rain latest hour (hover to see other rain measurements)
** Current wind speed in m/s (hover to see current wind gust speed)